Flag for Moldova Weather past 2 weeks in Chisinau, Moldova

Now
81 °F

Sunny.


Feels Like: 79 °F
Forecast: 64 / 94 °F
Wind: 3 mph from Northeast

Location: Chisinau International Airport

Current Time: Aug 30, 2015 at 11:18:24 AM

Latest Report: Aug 30, 2015 at 11:00 AM


Visibility: 10 mi

Pressure: 30.27 "Hg

Humidity: 28%

Dew point: 45 °F

Location of ChisinauLocation

Historic Weather in Chisinau — Graph

°F

Chisinau temperature yesterday

Maximum temperature yesterday: 97 °F (at 4:00 PM)
Minimum temperature yesterday: 63 °F (at 5:30 AM)
Average temperature yesterday: 81 °F

Past Weeks' High & Low Weather Summary

 TemperatureHumidityPressure
High97 °F (Aug 29, 4:00 PM)88% (Aug 16, 6:00 AM)30.27 "Hg (Aug 16, 6:00 AM)
Low54 °F (Aug 25, 7:00 AM)15% (Aug 25, 4:30 PM)29.77 "Hg (Aug 15, 5:00 PM)
Average73 °F47%30.04 "Hg
* Reported Aug 15 10:00 AM — Aug 30 10:00 AM, Chisinau, Weather by CustomWeather, © 2015

Note: Actual official high and low records may vary slightly from our data, if they occured in-between our weather recording intervals... More about our weather records

Advertising

Chisinau weather history for previous 24 hours

 ConditionsComfort  
Time TempWeatherWind HumidityBarometerVisibility
10:00 AM
Sun, Aug 30
77 °FPassing clouds.5 mph34%30.27 "HgN/A
9:30 AM77 °FPassing clouds.5 mph34%30.27 "HgN/A
9:00 AM75 °FPassing clouds.6 mph39%30.27 "HgN/A
8:30 AM73 °FPassing clouds.8 mph47%30.24 "HgN/A
8:00 AM72 °FScattered clouds.8 mph50%30.24 "HgN/A
7:00 AM72 °FPassing clouds.7 mph53%30.24 "HgN/A
6:30 AM72 °FPassing clouds.6 mph53%30.24 "HgN/A
6:00 AM73 °FClear.9 mph50%30.21 "Hg10 mi
5:30 AM73 °FClear.10 mph53%30.21 "Hg10 mi
5:00 AM73 °FClear.9 mph53%30.21 "Hg10 mi
4:30 AM73 °FClear.6 mph57%30.21 "Hg10 mi
4:00 AM73 °FClear.6 mph57%30.18 "Hg10 mi
3:30 AM75 °FClear.9 mph54%30.18 "Hg10 mi
3:00 AM75 °FClear.10 mph54%30.18 "Hg10 mi
2:30 AM77 °FClear.8 mph51%30.18 "Hg10 mi
2:00 AM77 °FClear.8 mph51%30.18 "Hg10 mi
1:30 AM79 °FClear.9 mph48%30.18 "Hg10 mi
1:00 AM79 °FClear.10 mph48%30.18 "Hg10 mi
12:00 AM79 °FClear.8 mph48%30.15 "Hg10 mi
11:30 PM
Sat, Aug 29
81 °FClear.7 mph45%30.15 "Hg10 mi
11:00 PM81 °FClear.7 mph42%30.15 "Hg10 mi
10:30 PM84 °FClear.7 mph37%30.15 "Hg10 mi
10:00 PM84 °FClear.9 mph37%30.15 "Hg10 mi
9:30 PM86 °FClear.12 mph35%30.12 "Hg10 mi
9:00 PM88 °FClear.12 mph31%30.12 "Hg10 mi
8:30 PM88 °FSunny.7 mph31%30.12 "Hg10 mi
8:00 PM90 °FSunny.8 mph29%30.09 "Hg10 mi
7:30 PM91 °FSunny.8 mph26%30.09 "Hg10 mi
7:00 PM93 °FSunny.10 mph24%30.09 "Hg10 mi
6:30 PM93 °FSunny.12 mph24%30.09 "Hg10 mi
6:00 PM95 °FPassing clouds.8 mph23%30.09 "HgN/A
5:30 PM95 °FSunny.12 mph20%30.09 "Hg10 mi
5:00 PM95 °FPassing clouds.8 mph20%30.09 "HgN/A
4:30 PM95 °FSunny.9 mph22%30.09 "Hg10 mi
4:00 PM97 °FPassing clouds.13 mph19%30.09 "HgN/A
3:30 PM95 °FPassing clouds.10 mph20%30.09 "HgN/A
3:00 PM95 °FPassing clouds.9 mph20%30.09 "HgN/A
2:30 PM95 °FSunny.8 mph20%30.12 "Hg10 mi
2:00 PM95 °FPassing clouds.10 mph19%30.12 "HgN/A
1:00 PM93 °FPassing clouds.10 mph23%30.12 "HgN/A
12:30 PM91 °FPassing clouds.9 mph28%30.12 "HgN/A
12:00 PM90 °FPassing clouds.8 mph29%30.12 "HgN/A
Weather by CustomWeather, © 2015

See weather overviewHow to use our weather pages